Weather in Matera

Italy     40°40′37″N   16°35′25″E
temp.,
°C
wind,
m/s
gust,
m/s
humid.,
%
clouds,
%
prec.,
mm/h
press.,
hPa
HPBL,
m
13 april, tue
tue1323:00+10sse2498100 0.1 1019182
02:00+10sse3799100 0.1 1017207
05:00+8se2296100 0.0 101638
08:00+11s4108611 0.1 1015318
11:00+16sw355570 0.1 10151823
14:00+15wnw910471 0.1 10151426
17:00+14wnw79565 0.0 10151164
20:00+8nw598592 0.0 1017277
14 april, wed
wed1423:00+7nw5991100 0.3 1020577
02:00+5nw51188100 0.4 1021607
05:00+5nw61291100 0.0 1020754
08:00+6nw813785 0.1 1021902
11:00+9nw10125625 0.0 10211436
14:00+11nw911475 0.0 10201547
17:00+10nnw794993 0.0 10191434
20:00+6nnw5116243 0.0 1021459
15 april, thu
thu1523:00+2nw47855 0.0 1022137
02:00+1nw46875 0.0 1022104
05:00+1nw35864 0.0 102178
08:00+5nw46710 0.0 1021272
11:00+11nw55535 0.0 10201249
14:00+13nnw4448100 0.0 10191918
17:00+11n4454100 0.0 10181160
20:00+6nne3671100 0.0 1020100
16 april, fri
fri1623:00+4nnw2275100 0.0 102120
02:00+3nnw328062 0.0 102025
05:00+3nnw228088 0.0 102028
08:00+5nw226994 0.0 1019128
11:00+11ne334797 0.0 10181295
14:00+14ene4443100 0.0 10161703
17:00+9ene4670100 0.3 1016520
20:00+6ene3590100 1.5 1016178
17 april, sat
sat1723:00+5n3491100 1.4 1016132
02:00+5nnw3694100 3.4 1015237
05:00+5nnw3596100 1.7 1013281
08:00+5nw3896100 3.2 1013410
11:00+6nw4692100 0.1 1013455
14:00+8nw4585100 0.2 1012643
17:00+8nnw4686100 0.0 1013502
20:00+7wnw2491100 0.0 1013129